• In Romania
  • List of Countries
  • For 7 days
  • Water Temperature
  • Satellite Maps
  • Weather Map
  • Weather Widgets
  • user-avatar
    Login

    Hourly Weather Kerns

    Today, 22 February, Wednesday

    Time Temperature Precipitation Wind Pressure Humidity
    00:00 +26°C° 0.1 mm 1 mps 759 mmHg 98%
    01:00 +26°C° 0.1 mm 1 mps 758 mmHg 98%
    02:00 +26°C° 0 mm 1 mps 758 mmHg 98%
    03:00 +26°C° 0 mm 1 mps 758 mmHg 98%
    04:00 +26°C° 0 mm 1 mps 758 mmHg 98%
    05:00 +26°C° 0 mm 1 mps 758 mmHg 97%
    06:00 +26°C° 0 mm 1 mps 758 mmHg 95%
    07:00 +27°C° 0 mm 1 mps 758 mmHg 94%
    08:00 +29°C° 0 mm 2 mps 759 mmHg 84%
    09:00 +31°C° 0 mm 2 mps 759 mmHg 75%
    10:00 +34°C° 0 mm 2 mps 759 mmHg 65%
    11:00 +34°C° 0.1 mm 3 mps 758 mmHg 65%
    12:00 +34°C° 0.1 mm 3 mps 758 mmHg 66%
    13:00 +35°C° 0.1 mm 4 mps 758 mmHg 66%
    14:00 +34°C° 0.4 mm 4 mps 757 mmHg 71%
    15:00 +33°C° 0.4 mm 4 mps 757 mmHg 76%
    16:00 +33°C° 0.4 mm 4 mps 757 mmHg 80%
    17:00 +30°C° 0.1 mm 4 mps 757 mmHg 84%
    18:00 +29°C° 0.1 mm 3 mps 757 mmHg 88%
    19:00 +28°C° 0.1 mm 3 mps 757 mmHg 92%
    20:00 +27°C° 0 mm 3 mps 758 mmHg 94%
    21:00 +27°C° 0 mm 3 mps 758 mmHg 96%
    22:00 +26°C° 0 mm 3 mps 759 mmHg 98%
    23:00 +26°C° 0.1 mm 3 mps 758 mmHg 97%

    Tomorrow, 23 February, Thursday

    Time Temperature Precipitation Wind Pressure Humidity
    00:00 +26°C° 0.1 mm 3 mps 758 mmHg 97%
    01:00 +26°C° 0.1 mm 3 mps 758 mmHg 96%
    02:00 +26°C° 0 mm 3 mps 758 mmHg 96%
    03:00 +26°C° 0 mm 3 mps 758 mmHg 96%
    04:00 +26°C° 0 mm 3 mps 757 mmHg 96%
    05:00 +26°C° 0 mm 3 mps 758 mmHg 95%
    06:00 +26°C° 0 mm 3 mps 758 mmHg 95%
    07:00 +26°C° 0 mm 3 mps 759 mmHg 94%
    08:00 +28°C° 0.1 mm 3 mps 759 mmHg 85%
    09:00 +30°C° 0.1 mm 4 mps 759 mmHg 75%
    10:00 +33°C° 0.1 mm 4 mps 759 mmHg 66%
    11:00 +33°C° 0.3 mm 4 mps 759 mmHg 70%
    12:00 +33°C° 0.3 mm 4 mps 758 mmHg 75%
    13:00 +33°C° 0.3 mm 4 mps 758 mmHg 79%
    14:00 +33°C° 0.4 mm 5 mps 757 mmHg 78%
    15:00 +33°C° 0.4 mm 5 mps 757 mmHg 77%
    16:00 +33°C° 0.4 mm 5 mps 756 mmHg 75%
    17:00 +32°C° 0 mm 5 mps 757 mmHg 81%
    18:00 +29°C° 0 mm 4 mps 757 mmHg 86%
    19:00 +28°C° 0 mm 4 mps 757 mmHg 91%
    20:00 +27°C° 0.2 mm 4 mps 758 mmHg 93%
    21:00 +27°C° 0.2 mm 3 mps 758 mmHg 94%
    22:00 +26°C° 0.2 mm 3 mps 759 mmHg 96%
    23:00 +26°C° 0.1 mm 3 mps 759 mmHg 96%

    Day after tomorrow, 24 February, Friday

    Time Temperature Precipitation Wind Pressure Humidity
    00:00 +26°C° 0.1 mm 3 mps 758 mmHg 96%
    01:00 +26°C° 0.1 mm 3 mps 758 mmHg 96%
    02:00 +26°C° 0 mm 3 mps 758 mmHg 96%
    03:00 +26°C° 0 mm 3 mps 757 mmHg 96%
    04:00 +26°C° 0 mm 3 mps 757 mmHg 96%
    05:00 +26°C° 0 mm 3 mps 758 mmHg 95%
    06:00 +26°C° 0 mm 3 mps 758 mmHg 93%
    07:00 +26°C° 0 mm 2 mps 758 mmHg 92%
    08:00 +28°C° 0 mm 3 mps 759 mmHg 81%
    09:00 +31°C° 0 mm 3 mps 759 mmHg 71%
    10:00 +34°C° 0 mm 3 mps 759 mmHg 61%
    11:00 +34°C° 0.2 mm 3 mps 758 mmHg 59%
    12:00 +35°C° 0.2 mm 3 mps 758 mmHg 57%
    13:00 +36°C° 0.2 mm 3 mps 757 mmHg 56%
    14:00 +35°C° 0.3 mm 4 mps 757 mmHg 59%
    15:00 +35°C° 0.3 mm 4 mps 757 mmHg 62%
    16:00 +34°C° 0.3 mm 4 mps 756 mmHg 66%
    17:00 +32°C° 0.3 mm 4 mps 757 mmHg 73%
    18:00 +30°C° 0.3 mm 4 mps 757 mmHg 81%
    19:00 +28°C° 0.3 mm 4 mps 758 mmHg 89%
    20:00 +28°C° 0.2 mm 3 mps 758 mmHg 90%
    21:00 +27°C° 0.2 mm 3 mps 758 mmHg 92%
    22:00 +27°C° 0.2 mm 3 mps 759 mmHg 93%
    23:00 +27°C° 0.3 mm 3 mps 758 mmHg 93%

    25 February, Saturday

    Time Temperature Precipitation Wind Pressure Humidity
    00:00 +27°C° 0.3 mm 3 mps 758 mmHg 93%
    01:00 +27°C° 0.3 mm 3 mps 757 mmHg 93%
    02:00 +27°C° 0.3 mm 3 mps 757 mmHg 94%
    03:00 +27°C° 0.3 mm 3 mps 757 mmHg 94%
    04:00 +26°C° 0.3 mm 3 mps 756 mmHg 95%
    05:00 +26°C° 0.4 mm 3 mps 757 mmHg 94%
    06:00 +26°C° 0.4 mm 3 mps 757 mmHg 94%
    07:00 +27°C° 0.4 mm 3 mps 758 mmHg 93%
    08:00 +28°C° 0.3 mm 4 mps 758 mmHg 83%
    09:00 +30°C° 0.3 mm 4 mps 758 mmHg 73%
    10:00 +33°C° 0.3 mm 4 mps 758 mmHg 63%
    11:00 +34°C° 0.1 mm 5 mps 758 mmHg 58%
    12:00 +35°C° 0.1 mm 5 mps 757 mmHg 54%
    13:00 +36°C° 0.1 mm 5 mps 757 mmHg 49%
    14:00 +36°C° 0 mm 5 mps 756 mmHg 50%
    15:00 +35°C° 0 mm 6 mps 756 mmHg 51%
    16:00 +35°C° 0 mm 6 mps 755 mmHg 51%
    17:00 +33°C° 0 mm 5 mps 756 mmHg 62%
    18:00 +30°C° 0 mm 5 mps 756 mmHg 72%
    19:00 +28°C° 0 mm 4 mps 757 mmHg 83%
    20:00 +27°C° 0 mm 4 mps 757 mmHg 87%
    21:00 +26°C° 0 mm 4 mps 757 mmHg 91%
    22:00 +25°C° 0 mm 4 mps 758 mmHg 96%
    23:00 +25°C° 0.1 mm 4 mps 758 mmHg 96%

    26 February, Sunday

    Time Temperature Precipitation Wind Pressure Humidity
    00:00 +25°C° 0.1 mm 4 mps 757 mmHg 96%
    01:00 +25°C° 0.1 mm 4 mps 757 mmHg 96%
    02:00 +25°C° 0.1 mm 4 mps 756 mmHg 96%
    03:00 +25°C° 0.1 mm 4 mps 756 mmHg 96%
    04:00 +25°C° 0.1 mm 4 mps 756 mmHg 96%
    05:00 +25°C° 0 mm 4 mps 756 mmHg 95%
    06:00 +25°C° 0 mm 4 mps 757 mmHg 95%
    07:00 +25°C° 0 mm 4 mps 757 mmHg 94%
    08:00 +27°C° 0 mm 4 mps 757 mmHg 82%
    09:00 +30°C° 0 mm 5 mps 757 mmHg 70%
    10:00 +33°C° 0 mm 5 mps 758 mmHg 58%
    11:00 +34°C° 0 mm 5 mps 757 mmHg 54%
    12:00 +35°C° 0 mm 6 mps 756 mmHg 50%
    13:00 +36°C° 0 mm 6 mps 756 mmHg 46%
    14:00 +35°C° 0 mm 6 mps 756 mmHg 48%
    15:00 +35°C° 0 mm 6 mps 755 mmHg 49%
    16:00 +35°C° 0 mm 6 mps 755 mmHg 51%
    17:00 +33°C° 0 mm 6 mps 756 mmHg 61%
    18:00 +29°C° 0 mm 5 mps 756 mmHg 71%
    19:00 +27°C° 0 mm 5 mps 757 mmHg 81%
    20:00 +27°C° 0 mm 5 mps 757 mmHg 86%
    21:00 +26°C° 0 mm 4 mps 757 mmHg 90%
    22:00 +25°C° 0 mm 4 mps 758 mmHg 95%
    23:00 +25°C° 0.1 mm 4 mps 757 mmHg 95%

    27 February, Monday

    Time Temperature Precipitation Wind Pressure Humidity
    00:00 +25°C° 0.1 mm 4 mps 757 mmHg 95%
    01:00 +25°C° 0.1 mm 4 mps 757 mmHg 96%
    02:00 +25°C° 0.1 mm 4 mps 757 mmHg 95%
    03:00 +25°C° 0.1 mm 4 mps 756 mmHg 95%
    04:00 +25°C° 0.1 mm 4 mps 756 mmHg 95%
    05:00 +25°C° 0 mm 4 mps 757 mmHg 94%
    06:00 +25°C° 0 mm 4 mps 757 mmHg 94%
    07:00 +25°C° 0 mm 4 mps 758 mmHg 93%
    08:00 +27°C° 0.1 mm 5 mps 758 mmHg 83%
    09:00 +29°C° 0.1 mm 5 mps 758 mmHg 73%
    10:00 +32°C° 0.1 mm 5 mps 758 mmHg 63%
    11:00 +33°C° 0.1 mm 5 mps 757 mmHg 59%
    12:00 +34°C° 0.1 mm 5 mps 757 mmHg 55%
    13:00 +35°C° 0.1 mm 5 mps 756 mmHg 51%
    14:00 +34°C° 0.2 mm 6 mps 756 mmHg 53%
    15:00 +34°C° 0.2 mm 6 mps 756 mmHg 56%
    16:00 +33°C° 0.2 mm 6 mps 756 mmHg 58%
    17:00 +32°C° 0 mm 5 mps 756 mmHg 67%
    18:00 +29°C° 0 mm 5 mps 757 mmHg 76%
    19:00 +27°C° 0 mm 5 mps 757 mmHg 85%
    20:00 +26°C° 0.1 mm 5 mps 758 mmHg 88%
    21:00 +26°C° 0.1 mm 4 mps 758 mmHg 91%
    22:00 +25°C° 0.1 mm 4 mps 758 mmHg 94%
    23:00 +25°C° 0.3 mm 4 mps 758 mmHg 94%
    Show more